Location: Mercogliano
(40.9167°N, 14.7333°E)
Time: 08:09:15
(UTC+00:00)

CZ-2C R/B - Pass Details

Date: 22 January 2021
Orbit: 785 x 870 km, 98.2° (Epoch: 08 March)

Event Time Altitude Azimuth Distance (km) Brightness Sun altitude
Rises 04:44:51 0° 145° (SE) 3,274 6.5 -17.8°
Reaches altitude 10° 04:47:15 10° 138° (SE) 2,356 5.8 -17.4°
Maximum altitude 04:52:06 41° 70° (ENE) 1,152 3.9 -16.5°
Drops below altitude 10° 04:57:04 10° 1° (N) 2,413 5.0 -15.6°
Sets 04:59:33 0° 355° (N) 3,363 5.6 -15.1°
